Other Surface Observations
Issued by NWS

Home | Current Version | Previous Version | Text Only | Print | Product List | Glossary On
Versions: 1 2 3 4 5 6 7 8 9 10 11 12 13 14 15 16 17 18 19 20 21 22 23 24 25 26 27 28 29 30 31 32 33 34 35 36 37 38 39 40 41 42 43 44 45 46 47 48 49 50
382
SXUS52 KTAE 192118
OSOTAE
OSOTAE
North Florida/South Alabama/Southwest Georgia Weather Roundup
National Weather Service Tallahassee Florida
400 PM EST THU JAN 19 2017

Note: "fair" indicates few or no clouds below 12,000 feet with no
significant weather and/or obstructions to visibility.

!FLZ017-115-028-034-025-192200
...North Florida...

CITY           SKY/WX    TMP DP  RH WIND       PRES   REMARKS
TALLAHASSEE    PTSUNNY   75  65  70 S10G18    29.95F
APALACHICOLA   CLOUDY    73  70  90 SE10      29.96F
PERRY          MOSUNNY   76  64  65 SW12G17   29.99R
CROSS CITY     CLOUDY    75  63  64 SW12      29.98R
JACKSONVILLE   PTSUNNY   76  59  55 VRB3      29.96F
$$

!FLZ112-006-005-002-011-192200
...Florida Panhandle...

CITY           SKY/WX    TMP DP  RH WIND       PRES   REMARKS
MARIANNA       SUNNY     79  60  52 S15G23    29.91S
BONIFAY        MOCLDY    77  63  61 S9        29.91F
PANAMA CITY NW CLOUDY    74  66  76 SE13      29.92F
TYNDALL AFB    MOSUNNY   75  67  75 S13       29.93F
TYND DRONE APT FAIR      75  68  80 S14       29.93F
DE FUNIAK SPR  MOCLDY    73  64  73 S12       29.92S
EGLIN AFB      LGT RAIN  73  68  84 S12       29.89F
DESTIN         MOSUNNY   76  70  82 S8        29.90F
HURLBURT       LGT RAIN  73  57  56 S9        29.88F
CRESTVIEW      PTSUNNY   75  65  70 S13G20    29.89F
PENSACOLA      CLOUDY    74  68  81 S15       29.87F
$$

!ALZ063-066-192200
...South Alabama...

CITY           SKY/WX    TMP DP  RH WIND       PRES   REMARKS
DOTHAN         MOSUNNY   77  62  59 S14       29.94F
OZARK CAIRNS   MOSUNNY   76  63  63 S13       29.89F
FT RUCKER HELI MOSUNNY   78  62  57 S12       29.88F
RUCKER HELI 3  NOT AVBL
RUCKER HELI 2  FAIR      77  62  59 S9        29.89F
FLORALA APT    PTSUNNY   74  62  66 S14       29.91F
ANDALUSIA      PTSUNNY   77  63  61 S8G16     29.88F
TROY           PTSUNNY   74  64  71 SE10      29.89F
EUFALA         FAIR      78  61  55 S10       29.90S
MOBILE         LGT RAIN  73  67  81 S14       29.83F
$$

!GAZ120>161-192200
...Southwest and South Central Georgia...

CITY           SKY/WX    TMP DP  RH WIND       PRES   REMARKS
THOMASVILLE    FAIR      77  64  65 SW7       29.96S
BAINBRIDGE     MOSUNNY   79  61  53 S8        29.93S
MOODY AFB      MOSUNNY   76  62  62 S7        29.95S
VALDOSTA       MOSUNNY   74  64  71 S5        29.97S
MOULTRIE       PTSUNNY   75  63  64 S5        29.96S
BLAKELY        MOSUNNY   79  63  57 SW3       29.93S
ALBANY         PTSUNNY   78  60  53 SW9       29.95F
TIFTON         PTSUNNY   75  61  62 SW9       29.95S
FITZGERALD     MOCLDY    76  62  60 S8        29.98S
CORDELE        MOCLDY    78  60  54 S6        29.95F
AMERICUS       FAIR      75  55  50 S8        29.95S
HOMERVILLE     FAIR      77  63  61 SW6       29.97S
$$

!GMZ750-755-770-775-192200
...Coastal and Buoy Obs...

STATION/POSITION TIME  TEMP    WIND        PRES    VSBY  WAVE
                       AIR SEA DIR/SP/G                  HT/PER
                 (UTC) (F)     (DEG/KT/KT) (MB)    (MI)  (FT/S)
KEATON BEACH     2100   65     190/  9/ 10 1015.5R
CEDAR KEY        2100   69     230/  5/  7 1016.0R
C TOWER          2100   69     160/ 11/ 11 1015.1F
APALACHICOLA BUO 2050   74 73  180/ 10/ 14 1014.9F         2/ 3
PANAMA CITY BUOY 2050   76 75              1013.7F         2/ 4
MOBILE BUOY      NOT AVBL
ORANGE BCH AL BU 2050   70 66  180/ 12/ 12 1011.2F         3/ 4
$$




USA.gov is the U.S. government's official web portal to all federal, state and local government web resources and services.